Estación de Los Colihues

Ultimos registro cada 15 minutos 25
Estación Fecha / Hora Temperatura Humedad Lluvia Velocidad Dirección Radiación Presion
25 Los Colihues 09-05-2026 06:00 2,7 96,9 0 0 230 0,6 1013,1
24 Los Colihues 09-05-2026 05:45 3,1 96,4 0 0 226 0,6 1013,2
23 Los Colihues 09-05-2026 05:30 3,6 96,6 0 0 227 0,6 1013,1
22 Los Colihues 09-05-2026 05:15 3,6 96,9 0 0 208 0,6 1013,1
21 Los Colihues 09-05-2026 05:00 4 96,8 0 0 239 0,6 1013,3
20 Los Colihues 09-05-2026 04:45 3,9 95,8 0 0 223 0,6 1013,2
19 Los Colihues 09-05-2026 04:30 4,2 95,8 0 0 215 0,6 1012,9
18 Los Colihues 09-05-2026 04:15 4,6 96,6 0 0 229 0,6 1013
17 Los Colihues 09-05-2026 04:00 4,4 96,1 0 0 227 0,6 1012,9
16 Los Colihues 09-05-2026 03:45 5 96,7 0 0 185 0,6 1013,2
15 Los Colihues 09-05-2026 03:30 5 95,9 0 0 198 0,6 1013,2
14 Los Colihues 09-05-2026 03:15 5,3 95,7 0 0 230 0,6 1013,4
13 Los Colihues 09-05-2026 03:00 5,8 96,3 0 0 201 0,6 1013,4
12 Los Colihues 09-05-2026 02:45 5,4 97,8 0 0 185 0,6 1013,4
11 Los Colihues 09-05-2026 02:30 5,1 96,9 0 0 212 0,6 1013,8
10 Los Colihues 09-05-2026 02:15 6,2 97 0 0 194 0,6 1014
9 Los Colihues 09-05-2026 02:00 6,4 96,7 0 0 199 0,6 1014,1
8 Los Colihues 09-05-2026 01:45 6,6 96,2 0 0,5 194 0,6 1014,1
7 Los Colihues 09-05-2026 01:30 6,9 96,3 0 0,5 194 0,6 1014,1
6 Los Colihues 09-05-2026 01:15 7 96,3 0 0,5 197 0,6 1014
5 Los Colihues 09-05-2026 01:00 7,1 96,7 0 0 201 0,6 1013,9
4 Los Colihues 09-05-2026 00:45 7,2 97 0 0 202 0,6 1013,7
3 Los Colihues 09-05-2026 00:30 7,1 96,9 0 0 206 0,6 1013,7
2 Los Colihues 09-05-2026 00:15 7,5 96,7 0 0 223 0,6 1013,8
1 Los Colihues 09-05-2026 00:00 7,8 96,5 0 0 191 0,6 1013,7